#timestamp,LO_Frequency,Hit 
1501758015.0,286046891.4,N
1501758016.0,286046891.4,N
1501758035.8,286046893.5,N
1501758055.6,286046893.6,N
1501758075.4,286046894.0,N
1501758095.3,286046891.1,N
1501758115.1,286046892.2,N
1501758135.8,286046890.2,N
1501758155.7,286046889.6,N
1501758175.5,286046890.4,N
1501758195.3,286046887.8,N
1501758215.2,286046890.6,N
1501758235.9,286046890.6,N
1501758255.7,286046888.1,N
1501758275.6,286046888.9,N
1501758295.4,286046888.1,N
1501758315.2,286046888.3,N
1501758335.0,286046887.7,N
1501758336.0,286046887.7,Y
1501758355.8,286046948.1,N
1501758375.6,286046945.4,N
1501758395.4,286046945.5,N
1501758415.3,286046945.8,N
1501758435.1,286046946.1,N
1501758455.8,286046946.3,N
1501758475.7,286046943.8,N
1501758495.5,286046944.3,N
1501758515.3,286046942.4,N
1501758535.2,286046943.3,N
1501758555.9,286046942.3,N
1501758575.7,286046942.2,N
1501758595.6,286046942.6,N
1501758615.4,286046942.5,N
1501758635.2,286046942.1,N
1501758655.0,286046942.9,N
1501758656.0,286046942.9,N
1501758675.8,286046940.9,N
1501758695.6,286046943.6,N
1501758715.4,286046943.4,N
1501758735.3,286046940.6,N
1501758755.1,286046943.6,N
1501758775.8,286046943.1,N
1501758795.7,286046943.3,N
1501758815.5,286046941.1,N
1501758835.3,286046939.3,N
1501758855.2,286046939.4,N
1501758875.9,286046940.2,N
1501758895.7,286046937.4,N
1501758915.6,286046940.4,N
1501758935.4,286046937.8,N
1501758955.2,286046937.6,N
1501758975.0,286046938.4,N
1501758975.9,286046938.4,N
1501758995.8,286046936.6,N
1501759015.6,286046936.6,N
1501759035.4,286046936.4,N
1501759055.3,286046936.3,N
1501759075.1,286046936.7,N
1501759095.8,286046936.4,N
1501759115.7,286046934.2,N
1501759135.5,286046932.6,N
1501759155.3,286046932.9,N
1501759175.2,286046932.8,N
1501759195.9,286046934.7,N
1501759215.7,286046934.6,N
1501759235.5,286046934.9,N
1501759255.4,286046935.3,N
1501759275.2,286046935.1,N
1501759295.0,286046932.5,N
1501759295.9,286046932.5,N
1501759315.8,286046932.7,N
1501759335.6,286046931.7,N
1501759355.4,286046932.3,N
1501759375.3,286046931.9,N
1501759395.1,286046932.0,N
1501759396.0,286046932.0,N
1501759415.8,286046931.8,N
1501759435.7,286046931.2,N
1501759455.5,286046931.8,N
1501759475.3,286046929.3,N
1501759495.2,286046932.3,N
1501759515.9,286046929.5,N
1501759535.7,286046927.7,N
1501759555.5,286046930.6,N
1501759575.4,286046930.2,N
1501759595.2,286046927.8,N
1501759615.0,286046930.4,N
1501759615.9,286046930.4,N
1501759635.8,286046928.1,N
1501759655.6,286046927.7,N
1501759675.4,286046928.3,N
1501759695.3,286046927.9,N
1501759715.1,286046928.3,N
1501759716.0,286046928.3,N
1501759735.8,286046928.6,N
1501759755.7,286046929.0,N
1501759775.5,286046927.1,N
1501759795.3,286046924.5,N
1501759815.1,286046927.2,N
1501759835.9,286046925.2,N
1501759855.7,286046924.6,N
1501759875.5,286046924.7,N
1501759895.4,286046924.7,N
1501759915.2,286046925.0,N
1501759935.0,286046925.3,N
1501759935.9,286046925.3,N
1501759955.8,286046925.7,N
1501759975.6,286046926.0,N
1501759995.4,286046923.3,N
1501760015.3,286046924.2,N
1501760035.1,286046924.0,N
1501760036.0,286046924.0,N
1501760055.8,286046923.1,N
1501760075.6,286046923.4,N
1501760095.5,286046924.1,N
1501760115.3,286046922.9,N
1501760135.1,286046924.7,N
1501760155.9,286046924.6,N
1501760175.7,286046927.3,N
1501760195.5,286046926.4,N
1501760215.4,286046924.7,N
1501760235.2,286046924.8,N
1501760255.0,286046925.2,N
1501760255.9,286046925.2,N
1501760275.8,286046926.0,N
1501760295.6,286046923.4,N
1501760315.4,286046923.2,N
1501760335.3,286046923.5,N
1501760355.1,286046923.5,N
1501760356.0,286046923.5,N
1501760375.8,286046921.7,N
1501760395.6,286046921.9,N
1501760415.5,286046922.3,N
1501760435.3,286046921.8,N
1501760455.1,286046924.0,N
1501760475.9,286046921.5,N
1501760495.7,286046922.8,N
1501760515.5,286046922.4,N
1501760535.4,286046921.6,N
1501760555.2,286046921.6,N
1501760575.0,286046921.9,N
1501760575.9,286046921.9,N
1501760595.8,286046921.8,N
1501760615.6,286046921.7,N
1501760635.4,286046921.9,N
1501760655.2,286046923.2,N
1501760675.1,286046924.1,N
1501760676.0,286046924.1,N
1501760695.8,286046923.9,N
1501760715.6,286046923.9,N
1501760735.5,286046921.7,N
1501760755.3,286046921.5,N
1501760775.1,286046921.0,N
1501760795.9,286046919.8,N
1501760815.7,286046922.3,N
1501760835.5,286046924.4,N
1501760855.4,286046922.7,N
1501760875.2,286046922.3,N
1501760895.0,286046922.0,N
1501760895.9,286046922.0,N
1501760915.8,286046921.8,N
1501760935.6,286046922.1,N
1501760955.4,286046920.2,N
1501760975.2,286046920.3,N
1501760995.1,286046921.2,N
1501760996.0,286046921.2,N
1501761015.8,286046918.7,N
1501761035.6,286046920.6,N
1501761055.5,286046920.3,N
1501761075.3,286046920.4,N
1501761095.1,286046920.0,N
1501761115.9,286046920.4,N
1501761135.7,286046919.6,N
1501761155.5,286046919.0,N
1501761175.4,286046918.9,Y
1501761195.2,286046989.0,N
1501761215.0,286046989.6,N
1501761215.9,286046989.6,N
1501761235.8,286046989.7,N
1501761255.6,286046989.7,N
1501761275.4,286046991.5,N
1501761295.3,286046991.5,N
1501761315.1,286046991.0,N
1501761316.0,286046991.0,N
1501761335.8,286046992.5,N
1501761355.7,286046990.4,N
1501761375.5,286046991.0,N
1501761395.3,286046988.7,N
1501761415.1,286046988.5,N
1501761435.9,286046990.9,N
1501761455.7,286046988.5,N
1501761475.5,286046989.8,N
1501761495.4,286046989.9,N
1501761515.2,286046987.7,N
1501761535.0,286046986.2,N
1501761535.9,286046986.2,N
1501761555.8,286046986.4,N
1501761575.6,286046985.6,N
1501761595.4,286046985.8,N
